Regional Weather Roundup
Issued by NWS Spokane, WA

Home | Current Version | Previous Version | Text Only | Print | Product List | Glossary On
Versions: 1 2 3 4 5 6 7 8 9 10 11 12 13 14 15 16 17 18 19 20 21 22 23 24 25 26 27 28 29 30 31 32 33 34 35 36 37 38 39 40 41 42 43 44 45 46 47 48 49 50
000
NZUS01 KOTX 300010
RWROTX
EASTERN WASHINGTON/NORTHERN IDAHO ROUNDUP
NATIONAL WEATHER SERVICE, SPOKANE WA
500 PM PDT FRI MAY 29 2015

Note: "fair" indicated few or no clouds below 12,000 feet with no
significant weather and/or obstructions to visibility.

...NORTHEAST WASHINGTON AND NORTHERN IDAHO PANHANDLE...

CITY           SKY/WX    TMP DP  RH WIND       PRES   REMARKS
SPOKANE INTL   MOSUNNY   80  42  25 NE3       29.94F
SPOKANE DOWNTO MOSUNNY   82  46  28 CALM      29.92F
COEUR D ALENE  MOSUNNY   79  45  29 SW3       29.92F
DEER PARK      MOSUNNY   80  45  28 CALM      29.94F
SANDPOINT      MOSUNNY   73  50  43 NE15      29.96F
BONNERS FERRY  FAIR      64  54  68 N12       30.01F

...SOUTHEAST WASHINGTON AND SOUTHERN IDAHO PANHANDLE...

CITY           SKY/WX    TMP DP  RH WIND       PRES   REMARKS
WALLA WALLA    MOSUNNY   91  43  18 NE10      29.83F
PULLMAN/MOSCOW SUNNY     80  50  34 SE6       29.96F
LEWISTON       MOSUNNY   88  42  20 S6        29.87F
LOWELL           N/A     81  51  35 VRB3      29.87F

...COLUMBIA BASIN...

CITY           SKY/WX    TMP DP  RH WIND       PRES   REMARKS
EPHRATA        MOSUNNY   87  44  22 VRB6      29.84F
MOSES LAKE     SUNNY     88  44  21 SE8       29.84F
TRI CITIES     MOSUNNY   92  46  20 CALM      29.79F
HERMISTON      PTSUNNY   93  46  19 N9        29.78F
PENDLETON      PTSUNNY   86  49  27 E12G18    29.82F THUNDER

...EAST SLOPES CASCADES...

CITY           SKY/WX    TMP DP  RH WIND       PRES   REMARKS
THE DALLES     PTSUNNY   88  56  33 NW12      29.78F
YAKIMA         MOSUNNY   91  49  23 SE8       29.82F
ELLENSBURG     PTSUNNY   87  54  32 VRB6      29.86F
WENATCHEE      CLOUDY    83  52  34 NW12      29.86S
OMAK           LGT RAIN  63  55  75 VRB3      29.90R

...SOUTHERN BRITISH COLUMBIA...

CITY           SKY/WX    TMP DP  RH WIND       PRES   REMARKS
PENTICTON      MOSUNNY   75  57  53 S20       29.85F
CASTLEGAR      CLOUDY    64  57  77 NE8       29.99F
CRANBROOK      PTSUNNY   61  52  72 S2        30.08F

...WESTERN MONTANA...

CITY           SKY/WX    TMP DP  RH WIND       PRES   REMARKS
MISSOULA       PTSUNNY   69  48  47 NW13      30.02F

...NEIGHBORING CITIES...

CITY           SKY/WX    TMP DP  RH WIND       PRES   REMARKS
SEATTLE        PTSUNNY   78  55  44 SW9       29.91F
CALGARY        LGT RAIN  52  48  87 S12       30.15F



USA.gov is the U.S. government's official web portal to all federal, state and local government web resources and services.